[[{"header":{"parameterUnit":"m.s-1","parameterCategory":1,"la1":30.2991,"la2":30.254,"lo1":-89.0895,"lo2":-89.0444,"dy":0.0017,"dx":0.0017,"nx":28,"ny":28,"refTime":"2025-01-12T09:00:00:Z","depth":0,"parameterNumber":2,"parameterNumberName":"U-component_of_WINDS"},"data":[0,0,0,0,0,0,0,0,0,0,0,0,0,0,0,0,0,0,0,0,0,0,0,0,0,0,0,0,0,0,0,0,0,0,0,0,0,0,0,0,0,0,0,0,0,0,0,0,0,0,0,0,0,0,0,0,0,0,-0.4285,-0.4285,0,-0.4307,-0.4307,-0.4307,-0.427,-0.4268,-0.4267,-0.4266,-0.4292,-0.4294,-0.4296,0,0,0,0,0,0,0,0,0,0,0,0,0,-0.4211,-0.4212,-0.4285,-0.4285,-0.4285,-0.4307,-0.4307,-0.4307,-0.427,-0.4268,-0.4267,-0.4265,-0.4291,-0.4294,-0.4296,0,0,0,0,0,0,0,0,0,0,0,0,0,-0.4239,-0.4213,-0.4285,-0.4269,-0.4268,-0.4307,-0.4307,-0.4308,-0.427,-0.4268,-0.4266,-0.4264,-0.4291,-0.4293,-0.4296,-0.4353,0,0,-0.4305,-0.4306,0,0,0,0,0,0,0,0,-0.4238,-0.4242,-0.4271,-0.427,-0.4269,-0.4283,-0.4291,-0.4323,-0.4271,-0.4269,-0.4266,-0.4264,-0.4291,-0.4294,-0.4302,-0.4354,-0.4355,-0.4305,-0.4307,-0.4308,-0.4309,0,0,0,0,0,0,0,-0.4236,-0.4241,-0.4293,-0.4271,-0.427,-0.4261,-0.4263,-0.4297,-0.4291,-0.4269,-0.4267,-0.427,-0.429,-0.43,-0.4303,-0.4355,-0.4305,-0.4308,-0.4309,-0.431,-0.4453,-0.4455,0,0,0,0,0,0,-0.4235,-0.4239,-0.4293,-0.4294,-0.4248,-0.4264,-0.4266,-0.4281,-0.429,-0.429,-0.4271,-0.4268,-0.4296,-0.4299,-0.4303,-0.437,-0.4308,-0.4311,-0.4312,-0.4451,-0.4453,-0.4456,0,0,0,0,0,0,-0.4234,-0.424,-0.4292,-0.4266,-0.4272,-0.4267,-0.4284,-0.4282,-0.4292,-0.4292,-0.4291,-0.4282,-0.4294,-0.4299,-0.434,-0.437,-0.4312,-0.4315,-0.4448,-0.4452,-0.4454,-0.4503,0,0,0,0,0,0,-0.4232,-0.424,-0.4262,-0.4267,-0.4273,-0.4328,-0.4286,-0.4284,-0.4296,-0.4292,-0.4302,-0.4301,-0.4293,-0.4336,-0.4343,-0.4373,-0.4317,-0.4446,-0.445,-0.4453,-0.4499,-0.4507,-0.4515,0,0,0,0,0,-0.4229,-0.4275,-0.4263,-0.4269,-0.43,-0.433,-0.4334,-0.4323,-0.4299,-0.432,-0.432,-0.4301,-0.4365,-0.4341,-0.4348,-0.4379,-0.4444,-0.4449,-0.4453,-0.4495,-0.4506,-0.4514,0,0,0,0,0,0,-0.4276,-0.4276,-0.4262,-0.4311,-0.432,-0.4324,-0.4351,-0.4334,-0.4352,-0.4347,-0.4333,-0.4336,-0.4379,-0.4383,-0.4356,-0.4433,-0.4401,-0.4407,-0.443,-0.444,-0.4448,-0.4447,-0.4319,0,0,0,0,0,-0.4291,-0.4315,-0.4314,-0.4357,-0.4362,-0.4356,-0.4368,-0.4358,-0.4368,-0.4373,-0.4375,-0.4387,-0.4409,-0.4424,-0.4445,-0.4498,-0.45,-0.4523,-0.4531,-0.4538,-0.4544,-0.4571,-0.4582,-0.4471,-0.4471,-0.4471,0,0,-0.4324,-0.4327,-0.4344,-0.4366,-0.4373,-0.4398,-0.436,-0.4388,-0.4407,-0.4377,-0.4416,-0.4418,-0.4429,-0.4476,-0.4497,-0.4481,-0.4574,-0.4543,-0.4549,-0.4552,-0.4577,-0.4588,-0.4597,-0.4474,-0.4473,-0.4473,0,0,-0.4398,-0.4402,-0.4438,-0.4444,-0.4454,-0.4448,-0.4457,-0.4462,-0.4462,-0.4499,-0.4477,-0.4499,-0.4538,-0.4547,-0.4557,-0.463,-0.4613,-0.4637,-0.468,-0.4707,-0.4715,-0.4723,-0.475,-0.4759,-0.4643,-0.4643,-0.4643,0,-0.4438,-0.4475,-0.4459,-0.4489,-0.4499,-0.4471,-0.4507,-0.4515,-0.4531,-0.4539,-0.452,-0.4567,-0.4573,-0.4621,-0.4639,-0.4647,-0.4657,-0.4637,-0.4715,-0.4723,-0.473,-0.4755,-0.4765,-0.4646,-0.4646,-0.4645,-0.4645,0,-0.4524,-0.455,-0.4577,-0.4592,-0.4605,-0.4638,-0.4628,-0.4643,-0.4631,-0.4628,-0.4666,-0.4671,-0.4692,-0.4702,-0.4692,-0.4749,-0.4738,-0.4717,-0.4684,-0.4743,-0.4767,-0.4776,-0.465,-0.4649,-0.4648,-0.4647,0,0,-0.463,-0.4633,-0.4644,-0.4649,-0.4656,-0.4676,-0.4707,-0.4725,-0.4739,-0.475,-0.4776,-0.4809,-0.4788,-0.4799,-0.4789,-0.4812,-0.487,-0.4788,-0.4788,-0.4804,-0.4933,-0.4949,-0.4961,-0.4858,-0.4859,-0.4861,-0.4932,0,-0.4704,-0.4756,-0.4742,-0.4795,-0.4818,-0.479,-0.4817,-0.4824,-0.4821,-0.484,-0.4837,-0.486,-0.4832,-0.4838,-0.486,-0.4858,-0.4896,-0.4853,-0.4883,-0.4884,-0.4882,-0.4973,-0.4991,-0.5058,-0.4941,-0.4942,-0.4944,0,-0.4797,-0.481,-0.4865,-0.4866,-0.4875,-0.4899,-0.4914,-0.4933,-0.494,-0.4936,-0.4947,-0.4931,-0.4961,-0.4926,-0.4968,-0.4939,-0.495,-0.4951,-0.4953,-0.4957,-0.4919,-0.498,-0.5079,-0.509,-0.4958,-0.4957,-0.4956,0,-0.4869,-0.49,-0.4937,-0.4942,-0.4944,-0.4962,-0.4964,-0.4969,-0.498,-0.4993,-0.5001,-0.5018,-0.5027,-0.5041,-0.503,-0.5005,-0.5074,-0.5038,-0.5072,-0.5072,-0.5089,-0.5089,-0.5193,-0.5094,-0.5094,-0.5094,-0.5094,0,-0.4954,-0.4989,-0.4969,-0.4992,-0.503,-0.5012,-0.505,-0.5049,-0.5053,-0.5075,-0.5051,-0.5073,-0.5056,-0.5076,-0.5068,-0.5104,-0.5108,-0.5106,-0.5104,-0.5109,-0.5109,-0.5117,-0.5113,-0.5097,-0.5096,-0.5096,-0.5095,0,-0.5042,-0.5031,-0.5068,-0.5066,-0.5066,-0.5094,-0.5093,-0.5114,-0.5107,-0.5135,-0.5141,-0.5132,-0.5154,-0.5143,-0.5167,-0.5161,-0.5207,-0.5198,-0.5205,-0.5203,-0.5238,-0.5235,-0.5352,-0.5366,-0.5258,-0.5259,-0.5259,0,-0.5098,-0.5123,-0.5123,-0.5135,-0.5138,-0.5158,-0.5169,-0.5152,-0.5164,-0.5173,-0.5193,-0.5212,-0.5227,-0.5263,-0.5259,-0.5277,-0.5268,-0.5308,-0.5271,-0.5275,-0.527,-0.5269,-0.5271,-0.5316,-0.5317,-0.5318,-0.5319,0,-0.5197,-0.5189,-0.5205,-0.5219,-0.5232,-0.5242,-0.5251,-0.5262,-0.5245,-0.526,-0.5281,-0.5292,-0.5315,-0.5334,-0.5349,-0.5351,-0.5333,-0.533,-0.5339,-0.5346,-0.5349,-0.5348,-0.5226,-0.5328,-0.5327,-0.5327,-0.5326,-0.5326,-0.5271,-0.5292,-0.5295,-0.5313,-0.5317,-0.5324,-0.5343,-0.5338,-0.5355,-0.5372,-0.536,-0.5385,-0.539,-0.5407,-0.5411,-0.5431,-0.5415,-0.5428,-0.5431,-0.5435,-0.544,-0.5344,-0.5433,-0.5433,-0.5433,-0.5432,-0.5432,0,-0.537,-0.5369,-0.5386,-0.5397,-0.5411,-0.539,-0.5397,-0.5411,-0.5433,-0.5438,-0.5452,-0.5476,-0.5494,-0.549,-0.5506,-0.5523,-0.5514,-0.5528,-0.5527,-0.5528,-0.5453,-0.5444,-0.5534,-0.5534,-0.5534,-0.5534,-0.5534,-0.5534,-0.5423,-0.5457,-0.5449,-0.5485,-0.5484,-0.5507,-0.5513,-0.552,-0.5524,-0.5551,-0.5565,-0.5562,-0.5563,-0.5579,-0.5595,-0.5593,-0.5601,-0.5617,-0.5613,-0.5543,-0.5533,-0.5524,-0.5515,-0.5619,-0.5619,-0.5686,-0.5687,-0.5687]},{"header":{"parameterUnit":"m.s-1","parameterCategory":1,"la1":30.2991,"la2":30.254,"lo1":-89.0895,"lo2":-89.0444,"dy":0.0017,"dx":0.0017,"nx":28,"ny":28,"refTime":"2025-01-12T09:00:00:Z","depth":0,"parameterNumber":3,"parameterNumberName":"V-component_of_WINDS"},"data":[0,0,0,0,0,0,0,0,0,0,0,0,0,0,0,0,0,0,0,0,0,0,0,0,0,0,0,0,0,0,0,0,0,0,0,0,0,0,0,0,0,0,0,0,0,0,0,0,0,0,0,0,0,0,0,0,0,0,-7.1445,-7.1447,0,-7.1603,-7.1605,-7.1607,-7.1533,-7.1529,-7.1525,-7.1521,-7.1678,-7.1686,-7.1693,0,0,0,0,0,0,0,0,0,0,0,0,0,-7.1074,-7.1081,-7.1445,-7.1447,-7.1449,-7.1603,-7.1605,-7.1607,-7.1534,-7.1529,-7.1524,-7.1519,-7.1675,-7.1685,-7.1694,0,0,0,0,0,0,0,0,0,0,0,0,0,-7.1234,-7.1084,-7.1444,-7.1431,-7.1431,-7.1602,-7.1605,-7.1608,-7.1535,-7.1529,-7.1523,-7.1517,-7.1672,-7.1684,-7.1695,-7.1887,0,0,-7.1731,-7.1737,0,0,0,0,0,0,0,0,-7.1225,-7.1247,-7.1431,-7.1432,-7.1433,-7.1542,-7.1531,-7.1701,-7.1536,-7.1495,-7.1521,-7.1514,-7.1637,-7.1652,-7.1694,-7.1895,-7.1901,-7.1732,-7.174,-7.1745,-7.1748,0,0,0,0,0,0,0,-7.1214,-7.124,-7.1507,-7.1434,-7.1435,-7.1415,-7.1431,-7.1563,-7.1597,-7.1498,-7.1493,-7.1513,-7.1637,-7.1683,-7.1697,-7.1904,-7.1732,-7.1743,-7.175,-7.1755,-7.2269,-7.2275,0,0,0,0,0,0,-7.1204,-7.1232,-7.1502,-7.1512,-7.1312,-7.1427,-7.1445,-7.1513,-7.1596,-7.1603,-7.1518,-7.1509,-7.1666,-7.1684,-7.1702,-7.1933,-7.1745,-7.1756,-7.1762,-7.2262,-7.227,-7.2277,0,0,0,0,0,0,-7.1196,-7.1229,-7.1496,-7.1371,-7.1403,-7.1439,-7.1517,-7.1519,-7.1566,-7.1611,-7.1616,-7.156,-7.1662,-7.1686,-7.1842,-7.1937,-7.1761,-7.1772,-7.2255,-7.2265,-7.2274,-7.2395,0,0,0,0,0,0,-7.1186,-7.1226,-7.1301,-7.1373,-7.141,-7.1635,-7.1523,-7.1527,-7.1587,-7.1577,-7.1651,-7.1658,-7.1659,-7.1825,-7.1854,-7.195,-7.1781,-7.2246,-7.2259,-7.2271,-7.2383,-7.2408,-7.2429,0,0,0,0,0,-7.1173,-7.1328,-7.1305,-7.1338,-7.1505,-7.1641,-7.1662,-7.1661,-7.1595,-7.1669,-7.1698,-7.1656,-7.1922,-7.1842,-7.1874,-7.1975,-7.224,-7.2255,-7.227,-7.2372,-7.2403,-7.2429,0,0,0,0,0,0,-7.1265,-7.1337,-7.1313,-7.1496,-7.1563,-7.1628,-7.1722,-7.1694,-7.1779,-7.1766,-7.176,-7.1777,-7.1939,-7.1972,-7.1882,-7.2164,-7.2071,-7.2093,-7.2138,-7.2167,-7.219,-7.2179,-7.1791,0,0,0,0,0,-7.1307,-7.1413,-7.147,-7.1626,-7.1661,-7.1686,-7.1745,-7.1739,-7.1807,-7.1835,-7.1875,-7.1942,-7.204,-7.2105,-7.2198,-7.2387,-7.2401,-7.2472,-7.2495,-7.2514,-7.2533,-7.2635,-7.2666,-7.2326,-7.2326,-7.2326,0,0,-7.1394,-7.1447,-7.1514,-7.1646,-7.1697,-7.1805,-7.171,-7.1829,-7.1909,-7.1852,-7.2003,-7.2035,-7.2108,-7.2282,-7.236,-7.2314,-7.263,-7.2533,-7.2548,-7.2557,-7.2653,-7.2685,-7.2714,-7.2336,-7.2334,-7.2333,0,0,-7.1609,-7.166,-7.1795,-7.1849,-7.1928,-7.1943,-7.1976,-7.2046,-7.2065,-7.2217,-7.2176,-7.227,-7.244,-7.2494,-7.2544,-7.2778,-7.2742,-7.2808,-7.293,-7.3029,-7.3056,-7.308,-7.3164,-7.3194,-7.2827,-7.2828,-7.2828,0,-7.1707,-7.1871,-7.1868,-7.1991,-7.205,-7.2004,-7.2141,-7.2192,-7.2297,-7.2338,-7.2285,-7.2497,-7.2544,-7.2729,-7.2786,-7.2828,-7.2864,-7.28,-7.3053,-7.3077,-7.3099,-7.3178,-7.321,-7.2835,-7.2834,-7.2833,-7.2833,0,-7.1987,-7.2101,-7.2201,-7.2306,-7.2375,-7.2504,-7.2519,-7.259,-7.2577,-7.2598,-7.2752,-7.2806,-7.2909,-7.2952,-7.294,-7.3136,-7.3105,-7.3053,-7.2959,-7.3139,-7.3214,-7.3244,-7.2846,-7.2843,-7.2841,-7.2839,0,0,-7.2266,-7.2367,-7.2404,-7.245,-7.2534,-7.2621,-7.2747,-7.285,-7.291,-7.2983,-7.3088,-7.3233,-7.3185,-7.3242,-7.3235,-7.3322,-7.3504,-7.3259,-7.3261,-7.3303,-7.3722,-7.3762,-7.3797,-7.348,-7.3486,-7.3491,-7.3716,0,-7.2486,-7.271,-7.2711,-7.2915,-7.302,-7.2978,-7.3088,-7.315,-7.3172,-7.3263,-7.3286,-7.3389,-7.3319,-7.3352,-7.3436,-7.3465,-7.3588,-7.3448,-7.3577,-7.3581,-7.3561,-7.3836,-7.3878,-7.4089,-7.3745,-7.375,-7.3754,0,-7.2775,-7.2859,-7.3075,-7.3144,-7.3187,-7.3286,-7.338,-7.3468,-7.3536,-7.3546,-7.361,-7.359,-7.3716,-7.3617,-7.3791,-7.3695,-7.3747,-7.3769,-7.3777,-7.379,-7.3679,-7.3856,-7.4156,-7.4187,-7.38,-7.3796,-7.3793,0,-7.2956,-7.3124,-7.3275,-7.3316,-7.3399,-7.3469,-7.3507,-7.357,-7.3631,-7.3712,-7.3752,-7.3846,-7.3898,-7.397,-7.3975,-7.3903,-7.415,-7.4052,-7.4161,-7.4161,-7.4216,-7.4212,-7.4528,-7.4249,-7.4248,-7.4248,-7.4247,0,-7.3204,-7.3337,-7.3358,-7.3451,-7.3599,-7.3597,-7.3743,-7.3774,-7.3831,-7.3927,-7.3895,-7.3986,-7.3988,-7.408,-7.4085,-7.4227,-7.4251,-7.4261,-7.4261,-7.4265,-7.4264,-7.4299,-7.4285,-7.4256,-7.4254,-7.4252,-7.4251,0,-7.3432,-7.3451,-7.3613,-7.3679,-7.3698,-7.3804,-7.3859,-7.3947,-7.3966,-7.4089,-7.4117,-7.4147,-7.4254,-7.4266,-7.4391,-7.4393,-7.4566,-7.4549,-7.4544,-7.4541,-7.465,-7.4639,-7.5,-7.5047,-7.4737,-7.4739,-7.4742,0,-7.3589,-7.3691,-7.3768,-7.3832,-7.3874,-7.3976,-7.4039,-7.404,-7.4107,-7.4193,-7.427,-7.4374,-7.4458,-7.4631,-7.4662,-7.4757,-7.4743,-7.4862,-7.4757,-7.4757,-7.4745,-7.4739,-7.4749,-7.4883,-7.4886,-7.4889,-7.4891,0,-7.3866,-7.387,-7.3963,-7.406,-7.4136,-7.4212,-7.4282,-7.4335,-7.4346,-7.4422,-7.4532,-7.4597,-7.4725,-7.4828,-7.4921,-7.4957,-7.4927,-7.4925,-7.4955,-7.496,-7.4953,-7.4958,-7.46,-7.4916,-7.4914,-7.4912,-7.4911,-7.491,-7.4063,-7.4152,-7.4221,-7.4325,-7.4379,-7.4446,-7.4531,-7.4561,-7.4654,-7.4759,-7.4754,-7.4875,-7.494,-7.5062,-7.5105,-7.5199,-7.5159,-7.5203,-7.5214,-7.5225,-7.5236,-7.4937,-7.5215,-7.5215,-7.5214,-7.5213,-7.5213,0,-7.4339,-7.4381,-7.4477,-7.4578,-7.4659,-7.4624,-7.47,-7.4771,-7.4879,-7.4942,-7.5026,-7.5152,-7.5252,-7.5291,-7.5389,-7.5456,-7.5444,-7.5482,-7.5477,-7.5486,-7.5266,-7.523,-7.549,-7.549,-7.549,-7.5489,-7.5489,-7.5489,-7.4492,-7.464,-7.4653,-7.4827,-7.4867,-7.4987,-7.5034,-7.5095,-7.5146,-7.5289,-7.5373,-7.5398,-7.5451,-7.5552,-7.5642,-7.5651,-7.5688,-7.5732,-7.5735,-7.5529,-7.5501,-7.5475,-7.5441,-7.574,-7.5741,-7.5947,-7.5948,-7.595]}]]